Location: Unspecified
(0.0000°N, 0.0000°E)
Time: 20:01:18
(UTC+02:00)

Cosmos 1953 Rocket - Visible Passes

Search period start: 21 August 2014 00:00
Search period end: 31 August 2014 00:00
Orbit: 607 x 636 km, 82.5° (Epoch: 21 August)

Date Brightness Start Highest point End Pass type
(mag) Time Alt. Az. Time Alt. Az. Time Alt. Az.
21 Aug 4.9 20:52:48 10° NE 20:55:50 18° E 20:55:58 18° E visible
21 Aug 6.2 22:30:39 10° NW 22:33:16 17° W 22:33:16 17° W visible
22 Aug 3.9 21:09:45 10° NNE 21:13:55 42° E 21:15:24 31° SE visible
23 Aug 3.6 21:27:36 10° N 21:32:00 78° W 21:35:07 19° S visible
24 Aug 5.3 21:46:09 10° NNW 21:50:04 32° W 21:53:58 10° SSW visible
25 Aug 4.8 20:27:09 10° NE 20:30:31 22° E 20:33:52 10° SE visible
25 Aug 6.6 22:05:52 10° WNW 22:08:08 14° W 22:10:24 10° SW visible
26 Aug 3.7 20:44:20 10° N 20:48:35 50° E 20:52:49 10° SSE visible
27 Aug 4.0 21:02:19 10° NNW 21:06:40 65° W 21:10:59 10° S visible
28 Aug 5.7 21:21:03 10° NW 21:24:44 27° W 21:28:25 10° SSW visible
29 Aug 6.8 21:41:20 10° WNW 21:42:48 12° W 21:44:16 10° WSW visible
30 Aug 3.6 20:18:57 10° N 20:23:15 61° E 20:27:33 10° SSE visible
